Location: Wellington Bassah
(8.4525°N, 13.1958°W)
Time: 00:07:45
(UTC+00:00)

Daily predictions for brighter satellites

Satellite Brightness Start Highest point End
(mag) Time Altitude Azimuth Time Altitude Azimuth Time Altitude Azimuth
Centaur D-1A AC-31 4.3 03:49:13 14° SSE 03:49:13 14° SSE 03:50:43 10° SSE
CZ-4C R/B 3.6 03:58:08 61° ENE 03:58:10 61° ENE 04:07:14 10° SE
SL-16 R/B 4.3 04:02:00 10° SE 04:06:55 25° ENE 04:09:54 18° NE
ATLAS CENTAUR Rocket 3.5 04:15:22 36° E 04:15:22 36° E 04:17:40 10° ENE
Cosmos 1844 Rocket 3.3 04:28:47 53° ESE 04:28:47 53° ESE 04:33:38 10° SSE
NOSS 0 Rocket 4.3 04:25:07 10° S 04:31:08 59° ESE 04:37:08 10° NNE
Cosmos 1867 4.3 04:40:54 44° SSE 04:40:54 44° SSE 04:44:31 10° SSE
Meteosat 1 Rocket2 4.2 04:40:52 54° S 04:40:52 54° S 04:45:13 10° SE
Ariane H10+ 4.1 04:04:46 10° WSW 04:42:20 49° S 04:47:25 10° ESE
Cosmos 1605 Rocket 4.2 04:40:48 31° NNE 04:43:48 66° E 04:49:56 10° SSE
GPS 2-15 Rocket1 4.2 04:45:18 39° ENE 04:45:18 39° ENE 04:48:40 10° E
Cosmos 1727 Rocket 3.8 04:43:33 10° S 04:49:43 89° E 04:55:53 10° N
Cosmos 1980 4.2 04:49:05 10° S 04:54:37 59° ESE 05:00:08 10° NNE
CZ-3 Stage 3 4.0 04:55:10 37° WSW 04:59:56 80° NNW 05:37:20 10° ENE
ATLAS CENTAUR R/B 2.7 05:04:53 23° SSE 05:04:53 23° SSE 05:06:12 10° SSE
Centaur AC-119 3.7 05:04:24 36° SSW 05:04:24 36° SSW 05:08:14 10° SSE
OAO 1 4.4 05:06:15 56° WSW 05:07:27 85° NW 05:12:54 10° NE
Ariane H10 3.4 05:07:42 47° SSW 05:07:56 48° S 05:10:25 10° ESE
Cosmos 2237 Rocket 2.2 05:05:10 10° SSW 05:10:51 82° ESE 05:16:30 10° NNE
ASTEX 1 3.3 05:06:09 10° S 05:11:05 88° W 05:14:38 19° N
CZ-3 R/B 3.5 05:03:41 29° W 05:14:15 48° NW 05:22:11 10° NE
Meteor 1-24 Rocket 3.8 05:14:38 10° S 05:20:37 86° E 05:26:27 10° N
Aurora 2 Rocket 1.5 05:24:12 80° S 05:24:12 80° S 05:27:21 10° ESE
OAO 3 Rocket 3.7 05:23:33 37° WSW 05:24:24 40° SW 05:28:52 10° SSE
Cosmos 1000 Rocket 4.5 05:18:36 10° SSW 05:24:42 57° W 05:30:52 10° N
SWIFT 3.7 05:26:07 19° N 05:26:07 19° N 05:28:00 10° NE
Cosmos 1844 4.2 05:27:37 33° W 05:28:27 35° WSW 05:33:26 10° SSW
Cosmos 2123 Rocket 3.9 05:24:53 10° S 05:31:10 81° W 05:37:23 10° N
Meteor 2-5 Rocket 3.7 05:25:45 10° S 05:31:42 82° W 05:37:37 10° N
Cosmos 1939 Rocket 3.3 05:33:12 34° WSW 05:33:12 34° WSW 05:35:59 10° SSW
Cosmos 1420 Rocket 4.3 05:28:05 10° S 05:33:14 68° ESE 05:38:26 10° NNE
Cosmos 1153 Rocket 4.5 05:36:24 10° NNW 05:42:33 65° W 05:48:48 10° S
CZ-4C R/B 4.4 05:43:10 19° W 05:46:30 23° WSW 05:53:16 10° SSW
CZ-4 R/B 3.7 05:42:42 10° N 05:47:25 66° WNW 05:52:04 10° SSW
Meteor 1-28 Rocket 4.4 05:47:04 10° SSW 05:49:06 19° WSW 05:49:06 19° WSW
FALCON 9 R/B 2.6 05:40:27 16° NW 05:50:05 82° SW 05:54:10 10° SE
SL-16 R/B 3.4 05:45:00 10° SSW 05:50:10 29° WSW 05:54:58 12° NW
USA 306 2.6 05:54:35 19° N 05:54:35 19° N 05:55:46 10° NNE
NOAA 12 4.1 05:51:43 10° N 05:56:57 64° WNW 06:02:11 10° SSW
SAR-Lupe-3 3.9 05:54:27 10° S 05:57:07 52° W 05:59:46 10° NNW
ATLAS 2AS CENTAUR RB 4.0 05:57:42 14° W 06:03:15 75° N 07:04:27 10° E
Cosmos 1908 Rocket 4.2 06:00:04 10° N 06:04:23 60° E 06:08:41 10° SSE
SL-16 R/B 2.8 06:03:30 10° S 06:09:06 64° ESE 06:14:42 10° NNE
ISS -3.8 06:06:55 10° NW 06:10:16 82° SW 06:13:37 10° SSE
Cosmos 2056 Rocket 3.5 06:08:42 10° SSW 06:14:02 78° WNW 06:19:25 10° N
BREEZE-M DEB (TANK) 4.5 06:14:13 10° WSW 06:19:04 22° WNW 06:21:36 10° N
Cosmos 1340 Rocket 3.8 06:18:50 10° NW 06:21:51 24° W 06:24:51 10° SSW
Iridium 4 Rocket 2.9 06:17:50 10° N 06:21:56 73° W 06:26:07 10° S
COSMO-SKYMED 1 4.0 06:20:35 10° SSE 06:24:25 39° ENE 06:28:15 10° N
SKYMED 2 4.0 06:22:08 10° SSE 06:26:26 71° ENE 06:30:45 10° N
CBERS-1 4.2 06:21:55 10° NNE 06:27:00 84° ESE 06:32:06 10° S
